Simultaneous Nadir Overpasses (SNOs) Predictions

Prediction of SNOs between LANDSAT-8 and NOAA-19 Satellite Orbit:

Table of predicted SNOs for the next 14.0 days since TLE Epoch: 1/23/2021
Index Date (LANDSAT-8) Time (LANDSAT-8) Lat,Lon (LANDSAT-8) SZA (LANDSAT-8 ) Date (NOAA-19) Time (NOAA-19) Lat,Lon (NOAA-19) SZA (NOAA-19 ) Distance(km) Time Diff (sec)
1 01/23/2021 19:29:01 -80.19, 96.92 79.66 01/23/2021 19:28:23 -80.17, 97.06 79.67 3.41 38
2 01/23/2021 20:18:28 80.16, -95.70 100.30 01/23/2021 20:19:29 80.18, -95.73 100.32 1.49 61
3 01/26/2021 01:02:45 80.18,-166.64 99.77 01/26/2021 01:01:43 80.21,-166.66 99.78 3.03 62
4 01/26/2021 01:52:12 -80.18, 0.99 80.25 01/26/2021 01:52:36 -80.17, 1.12 80.23 2.60 24
5 01/28/2021 07:25:55 80.19, 97.70 99.20 01/28/2021 07:25:55 80.19, 97.69 99.19 0.90 0
6 01/30/2021 12:59:39 -80.21,-165.62 81.40 01/30/2021 12:59:03 -80.20,-165.73 81.42 2.30 36
7 01/30/2021 13:49:06 80.17, 1.72 98.55 01/30/2021 13:50:08 80.19, 1.68 98.58 1.88 62
8 02/01/2021 18:33:22 80.22, -68.97 97.99 02/01/2021 18:32:21 80.20, -69.00 97.96 1.56 61
9 02/01/2021 19:22:50 -80.19, 98.40 82.07 02/01/2021 19:23:16 -80.20, 98.31 82.06 2.28 26



Historial Predications of SNOs between LANDSAT-8 and NOAA-19
